Regional Weather Roundup
Issued by NWS Pendleton, OR

Home | Current Version | Previous Version | Text Only | Print | Product List | Glossary On
Versions: 1 2 3 4 5 6 7 8 9 10 11 12 13 14 15 16 17 18 19 20 21 22 23 24 25 26 27 28 29 30 31 32 33 34 35 36 37 38 39 40 41 42 43 44 45 46 47 48 49 50
951
ASUS46 KPDT 070604
RWRPDT
PENDLETON REGIONAL WEATHER ROUNDUP
NATIONAL WEATHER SERVICE PENDLETON OREGON
1000 PM PST SAT FEB 6 2016

NOTE: FAIR INDICATES FEW OR NO CLOUDS BELOW 12,000 FEET WITH NO
SIGNIFICANT WEATHER AND/OR OBSTRUCTIONS TO VISIBILITY.

# INDICATES UNOFFICIAL STATION AND DATA

WAZ520-070710-
EAST SLOPES OF WASHINGTON CASCADES

CITY            SKY/WX      TMP DP  RH  WIND    PRES   REMARKS
#BULLFROG       N/A         28  27  96  CALM    N/A
#BUMPING DAM    N/A         27  N/A N/A CALM    N/A
#CLE ELUM HS    N/A         28  27  96  CALM    30.37R
#CLE ELUM 2NW   N/A         27  27  100 CALM    N/A
#CLE ELUM LAKE  N/A         30  28  92  CALM    30.49R
#ELK HTS DOT    N/A         30  30  100 W1      N/A
#GLENWOOD       N/A         31  29  92  CALM    30.48R
#MANASTASH CYN  N/A         28  22  78  CALM    30.35R
#NELSON         N/A         N/A N/A N/A CALM    30.41R
#NELSON 3SW     N/A         27  25  92  CALM    30.70R
#NILE           N/A         28  26  92  CALM    29.74R
#RONALD 2NW     N/A         31  N/A N/A N1      30.25R
#SNOWDEN        N/A         32  22  66  CALM    N/A
#SOUTH BLEWITT  N/A         29  29  100 CALM    N/A
#TEANAWAY 4NE   N/A         28  27  96  CALM    N/A
#TROUT LAKE 1NE N/A         33  31  92  CALM    30.49R
#TROUT LAKE 1E  N/A         32  31  96  CALM    30.38R
$$

WAZ521-070710-
SIMCOE HIGHLANDS

CITY            SKY/WX      TMP DP  RH  WIND    PRES   REMARKS
#BICKLETON HS   N/A         36  14  40  NW5     N/A
#SATUS PASS DOT N/A         32  28  85  CALM    N/A
#CENTERVILLE 1SWN/A         35  32  89  CALM    30.44R
#GOLDENDALE     N/A         38  34  85  NE1     N/A
#GOLDENDALE 1NE N/A         35  28  75  CALM    N/A
#GOODNOE HILLS  N/A         42  29  60  W8      30.32R
#LYLE 6NE       N/A         40  32  73  CALM    30.43R
$$

WAZ026-070710-
KITTITAS VALLEY

CITY            SKY/WX      TMP DP  RH  WIND    PRES   REMARKS
ELLENSBURG AP   CLEAR       30  25  81  N6      30.43R
6HR MIN TEMP:   30; 6HR MAX TEMP:   42;

#ELLENSBURG CWU N/A         31  28  88  CALM    30.43R
#ELLENSBURG 3NE N/A         30  27  88  N3      30.41R
#ELLENSBURG     N/A         31  32  100 NE2     N/A
#ELLENSBURG 1E  N/A         28  N/A N/A CALM    N/A
#KITTITAS 4N    N/A         30  25  81  E1      30.45R
#KITTITAS 3S    N/A         27  25  92  CALM    30.48R
#MANASTASH RDG  N/A         34  34  100 S8      N/A
#ROCKY CYN DOT  N/A         31  29  92  W7      N/A
#RYEGRASS DOT   N/A         34  26  72  W6      N/A
#THORP 6N       N/A         30  28  92  N5      30.50R
$$

WAZ027-070710-
YAKIMA VALLEY

CITY            SKY/WX      TMP DP  RH  WIND    PRES   REMARKS
SUNNYSIDE AP    PTCLDY      31  27  85  NE3     30.45R
6HR MIN TEMP:   30; 6HR MAX TEMP:   45;

YAKIMA AIRPORT  PTCLDY      34  28  78  W8      30.45R
6HR MIN TEMP:   32; 6HR MAX TEMP:   50;

YAKIMA-VAGABOND CLEAR       38  29  70  E9      30.42R
6HR MIN TEMP:   34; 6HR MAX TEMP:   47;

#DONALD 2NE     N/A         41  20  43  CALM    29.28R
#GRANDVIEW      N/A         35  31  85  CALM    30.48R
#MABTON         N/A         37  34  89  S2      30.44R
#MOXEE 2E       N/A         35  24  64  NE1     30.41R
#NACHES 2SW     N/A         37  30  75  NW1     30.40S
#PARKER DOT     N/A         42  29  60  S6      N/A
#TERRACE HTS    N/A         35  30  82  CALM    30.42R
#TOPPENISH      N/A         37  33  85  CALM    30.37R
#I82 S UMTANUM RN/A         36  27  69  N9      N/A
#UNION GAP DOT  N/A         35  30  82  S6      N/A
#WEST VALLEY    N/A         36  29  75  CALM    30.45R
#W YAKIMA       N/A         38  30  73  W3      30.46R
#WHITE SWAN 5E  N/A         35  32  89  CALM    30.46R
#WILEY CITY 3W  N/A         35  25  66  CALM    30.40
#ZILLAH DOT     N/A         39  31  73  E2      N/A
$$

WAZ028-070710-
LOWER COLUMBIA BASIN...WASHINGTON

CITY            SKY/WX      TMP DP  RH  WIND    PRES   REMARKS
PASCO           PTCLDY      33  30  89  N6      30.46R
6HR MIN TEMP:   33; 6HR MAX TEMP:   49;

PROSSER AWOS    N/A         36  34  92  N1      30.48R
RICHLAND AWOS   PTCLDY      36  34  92  W5      30.47R
#BENTON CITY    N/A         39  33  79  SW3     30.37R
#CONNELL 5N     N/A         34  32  92  NE1     30.46R
#ELTOPIA 6NW    N/A         39  35  85  CALM    29.39S
#KAHLOTUS       N/A         35  32  89  S7      30.46R
#KENNEWICK 3S   N/A         42  34  73  CALM    30.46R
#PATERSON       N/A         43  35  73  CALM    30.44R
#PROSSER DOT    N/A         37  35  92  CALM    N/A
#PROSSER        N/A         39  33  79  CALM    30.45R
#SAGEMOOR 2W    N/A         38  34  85  N1      30.31R
#TOUCHET 2S     N/A         39  34  82  E2      30.43S
#WEST PASCO     N/A         38  32  79  CALM    30.50R
$$

WAZ029-070710-
FOOTHILLS OF THE BLUES...WASHINGTON

CITY            SKY/WX      TMP DP  RH  WIND    PRES   REMARKS
WALLA WALLA AP  MOCLDY      37  30  75  E8      30.43S
6HR MIN TEMP:   37; 6HR MAX TEMP:   47;

#CLYDE 6NW      N/A         36  31  82  CALM    30.46R
#DAYTON SCHOOL  N/A         35  25  66  CALM    30.43S
#DELANEY DOT    N/A         33  30  89  CALM    N/A
#LOWDEN 2SE     N/A         38  34  85  CALM    30.41S
#PLEASANT VIEW 1N/A         38  31  76  SW2     30.50S
#PRESCOTT       N/A         36  32  85  CALM    30.45R
#WHITMAN COLLEGEN/A         43  33  67  E2      30.49S
#WAITSBURG 5S   N/A         39  31  73  NE3     30.55R
#WAITSBURG 8N   N/A         29  10  44  N1      30.27S
#WHITMAN MISSIONN/A         40  35  82  CALM    30.46R
$$

WAZ030-070710-
BLUE MOUNTAINS...WASHINGTON

CITY            SKY/WX      TMP DP  RH  WIND    PRES   REMARKS
#DIXIE 5SE      N/A         40  19  42  SE2     30.32S
#SKI BLUEWOOD   N/A         25  22  88  SW1     30.35F
$$

ORZ009-041-WAZ024-070710-
COLUMBIA RIVER GORGE

CITY            SKY/WX      TMP DP  RH  WIND    PRES   REMARKS
HOOD RIVER AP   CLOUDY      39  36  89  CALM    30.47S
THE DALLES AP   CLOUDY      41  36  82  SE6     30.46R
6HR MIN TEMP:   41; 6HR MAX TEMP:   52;

#ARLINGTON AIRPON/A         42  34  73  W3      30.46R
#ARLINGTON HS   N/A         43  33  67  W1      30.36R
#CELILO DOT     N/A         44  31  60  SW2     N/A
#LYLE           N/A         44  37  76  NE2     30.48R
#MARYHILL       N/A         44  32  62  CALM    N/A
#MARYHILL 2W    N/A         43  37  79  CALM    N/A
#MOSIER 1S      N/A         40  30  67  CALM    30.43S
#RUFUS DOT      N/A         46  35  65  CALM    N/A

$$

ORZ510-070710-
NORTH CENTRAL OREGON

CITY            SKY/WX      TMP DP  RH  WIND    PRES   REMARKS
#CHENOWITH 1W   N/A         39  35  85  NW8     N/A
#COW CYN RST AREN/A         40  28  62  SW3     N/A
#DUFUR 9E       N/A         41  30  65  CALM    30.50R
#GRASS VALLEY 1SN/A         37  30  75  SW3     30.50R
#KENT DOT       N/A         36  24  61  N7      N/A
#MAUPIN SCHOOL  N/A         44  33  65  CALM    30.46R
#MORO SCHOOL    N/A         39  33  79  CALM    30.42R
#SHANIKO 4NW    N/A         40  30  67  S10     30.38S
#TYGH VALLEY 2NEN/A         41  32  70  CALM    30.45R
#WAPANITIA AIRPON/A         40  33  76  W1      30.47R
#WASCO DOT      N/A         34  29  82  CALM    N/A
#WASCO 5NE      N/A         39  32  76  W2      30.46R
$$

ORZ511-070710-
CENTRAL OREGON

CITY            SKY/WX      TMP DP  RH  WIND    PRES   REMARKS
BEND AIRPORT    PTCLDY      34  32  92  CALM    30.43R
MADRAS AIRPORT  CLOUDY      36  32  85  E3      30.45R
PRINEVILLE AP   CLOUDY      32  30  92  CALM    30.42R
REDMOND AIRPORT PTCLDY      33  30  89  CALM    30.42R
6HR MIN TEMP:   33; 6HR MAX TEMP:   51;

#ASHWOOD SCHOOL N/A         36  32  85  CALM    30.36R
#BEND 6E        N/A         36  29  75  CALM    30.44S
#BEND 1SW       N/A         36  34  92  SW1     N/A
#BEND-KIM LN    N/A         37  33  85  CALM    30.38S
#LAKE BILLY CHINN/A         40  N/A N/A CALM    30.48R
#MADRAS         N/A         37  32  82  E2      N/A
#POWELL BUTTE 3EN/A         35  32  89  E1      N/A
#PRINEVILLE 3N  N/A         36  32  85  CALM    30.47R
#WARM SPRINGS   N/A         42  33  70  CALM    30.39R

$$


ORZ509-070710-
EAST SLOPES OF OREGON CASCADES

CITY            SKY/WX      TMP DP  RH  WIND    PRES   REMARKS
SISTERS AWOS    N/A         36  30  79  CALM    30.36R
#BLUE BOX PASS  N/A         38  N/A N/A CALM    N/A
#BLACK BUTTE RNCN/A         36  34  92  CALM    30.44S
#CAMP SHERMAN   N/A         35  32  89  CALM    30.55R
#LA PINE DOT    N/A         34  32  92  E1      N/A
#LA PINE 4NW    N/A         33  30  89  CALM    30.47R
#LAVA BUTTE DOT N/A         37  35  92  CALM    N/A
#SISTERS AIRPOR N/A         36  34  92  N1      30.17S
#SISTERS ODOT   N/A         36  N/A N/A S1      N/A
#SISTERS 3N     N/A         34  25  69  S2      30.38S
#SUNRIVER       N/A         35  34  96  CALM    30.47R
#SUTTLE LK DOT  N/A         30  30  100 NW8     N/A
#TUMALO 3W      N/A         39  32  76  NE3     30.32F
#WANOGA BUTTE D N/A         36  36  100 CALM    N/A

$$

ORZ044-070710-
LOWER COLUMBIA BASIN...OREGON

CITY            SKY/WX      TMP DP  RH  WIND    PRES   REMARKS
HERMISTON       MOCLDY      41  34  76  S3      30.44R
6HR MIN TEMP:   40; 6HR MAX TEMP:   48;

#BOARDMAN SCHOOLN/A         41  36  82  CALM    30.45R
#BOARDMAN 8SW   N/A         43  36  76  CALM    30.44R
#ECHO 8SW       N/A         39  30  70  SW1     30.44S
#I-84 EX 198 DOTN/A         42  30  62  NE2     N/A
#IONE SCHOOL    N/A         40  24  52  CALM    30.39R
#UMATILLA SCHOOLN/A         38  38  100 CALM    30.45R
#UMATILLA       N/A         41  33  73  CALM    30.38S
$$

ORZ507-070710-
NORTHERN FOOTHILLS OF THE BLUES

CITY            SKY/WX      TMP DP  RH  WIND    PRES   REMARKS
PENDLETON AIRPT CLOUDY      38  32  79  E6      30.42R
6HR MIN TEMP:   38; 6HR MAX TEMP:   45;

#ADAMS 3WNW     N/A         38  34  85  CALM    30.43F
#ATHENA         N/A         39  31  73  CALM    30.46S
#CAYUSE         N/A         42  31  65  CALM    30.43S
#HELIX SCHOOL   N/A         37  33  85  CALM    30.45R
#HELIX 3N       N/A         41  31  67  S1      30.35S
#HOLDMAN 5SE    N/A         43  40  89  CALM    30.33S
#HOLDMAN 6E     N/A         38  32  79  CALM    30.26R
#M-F GROVE ELEM N/A         40  31  70  CALM    30.40S
#M-FREEWATER 5SEN/A         41  30  65  CALM    30.40S
#PDT AQUATIC CTRN/A         40  27  59  CALM    30.40F
#PDT SUNRIDGE   N/A         38  33  82  CALM    30.43S
#PENDLETON 7NW  N/A         39  33  79  CALM    26.60S
#PILOT ROCK     N/A         37  24  59  CALM    30.40R
#TUTUILLA       N/A         38  33  82  CALM    30.42S
#UMAPINE 2E     N/A         39  35  85  CALM    30.40S
#WESTON SCHOOL  N/A         42  26  53  CALM    30.37S

$$

ORZ508-070710-
SOUTHERN FOOTHILLS OF THE BLUES

CITY            SKY/WX      TMP DP  RH  WIND    PRES   REMARKS
LEXINGTON       MOCLDY      39  27  62  NW3     30.45R
#CONDON SCHOOL  N/A         39  30  70  SW5     30.32S
#CONDON 5W      N/A         38  24  57  SW7     30.36R
#FOSSIL SCHOOL  N/A         37  30  75  CALM    30.32S
#HEPPNER EOC    N/A         40  27  59  SE3     30.37S
#HEPPNER 4NE    N/A         37  26  64  E1      30.44R
#LEXINGTON 2SE  N/A         42  28  57  CALM    30.37R
#MIKKALO        N/A         38  29  70  SE1     30.50R
#OLEX 4N        N/A         41  34  76  S3      30.40R
#RUGGS 5NE      N/A         39  27  62  NE2     30.52F
#RUGGS 2SW      N/A         44  34  68  SW8     30.45S

$$

ORZ502-503-070710-
BLUE MOUNTAINS

CITY            SKY/WX      TMP DP  RH  WIND    PRES   REMARKS
MEACHAM         CLOUDY      31  27  85  CALM    30.38S
6HR MIN TEMP:   31; 6HR MAX TEMP:   39;

#BATTLE MTN DOT N/A         35  27  72  S6      N/A
#LADD CYN SMT   N/A         31  25  78  SE16    N/A    WCI 20
#LADD CREEK ODOTN/A         33  12  41  SW2     N/A
#LONG CREEK HS  N/A         36  35  96  CALM    N/A
#N POWDER DOT   N/A         30  28  92  CALM    N/A
#PIKES PEAK     N/A         40  19  42  SW7     27.99S
#TOLLGATE       N/A         28  26  92  CALM    30.18S
#TROY SCHOOL    N/A         40  32  73  SW1     30.32S
#UKIAH          N/A         30  28  92  CALM    30.39F
#WESTON 4E      N/A         39  27  62  CALM    30.43S
$$

ORZ505-070710-
JOHN DAY BASIN

CITY            SKY/WX      TMP DP  RH  WIND    PRES   REMARKS
JOHN DAY        CLEAR       38  32  79  E5      30.41F
#DAYVILLE SCHOOLN/A         40  33  76  CALM    30.36S
#MITCHELL       N/A         35  32  89  CALM    30.54F
#MITCHELL 8NW   N/A         41  32  70  CALM    30.63S
#MONUMENT HS    N/A         37  31  79  CALM    30.34F
#MT. VERNON 5SE N/A         38  32  79  CALM    30.35F
#SPRAY SCHOOL   N/A         37  N/A N/A CALM    N/A
#WINLOCK        N/A         36  31  82  CALM    30.34F
$$

ORZ506-070710-
OCHOCO AND JOHN DAY HIGHLANDS

CITY            SKY/WX      TMP DP  RH  WIND    PRES   REMARKS
#BUCK CREEK DOT N/A         40  40  100 CALM    N/A
#HORSE RIDGE DO N/A         32  31  96  SW1     N/A
#KEYES SMT DOT  N/A         33  31  92  SE2     N/A
#PAULINA SCHOOL N/A         48  34  58  CALM    30.32F
#PINE MTN OBS   N/A         36  33  89  CALM    N/A
#PRAIRIE CITY   N/A         34  27  75  CALM    30.40S
#SENECA         N/A         31  N/A N/A CALM    N/A
#SENECA 9NW     N/A         29  27  92  CALM    30.50F
$$

ORZ049-070710-
GRANDE RONDE VALLEY

CITY            SKY/WX      TMP DP  RH  WIND    PRES   REMARKS
LA GRANDE       CLOUDY      37  27  67  S10     30.40F
#COVE           N/A         35  33  92  CALM    30.42S
#COVE SCHOOL    N/A         36  32  85  CALM    30.40S
#COVE 6NW       N/A         36  29  75  SE3     30.31F
#ELGIN 3N       N/A         37  26  64  S3      30.36F
#ELGIN 1E       N/A         37  30  75  CALM    N/A
#IMBLER SCHOOL  N/A         35  30  82  SW3     30.35S
#ISLAND CITY 4N N/A         40  39  96  CALM    30.46R
#LADD CYN DOT   N/A         37  30  75  S21     N/A    WCI 26
#UNION 1S       N/A         38  31  76  SE17G24 30.40F WCI 29
$$

ORZ050-070710-
WALLOWA COUNTY

CITY            SKY/WX      TMP DP  RH  WIND    PRES   REMARKS
#ENTERPRISE AP  N/A         34  28  78  CALM    30.29R
#ENTERPRISE HS  N/A         34  30  85  CALM    30.37S
#IMNAHA SCHOOL  N/A         42  30  62  SW2     30.40S
#IMNAHA 10S     N/A         39  29  67  SW5     30.37
#JOSEPH 3N      N/A         32  26  78  CALM    30.36F
#JOSEPH 3W      N/A         32  24  72  CALM    30.17R
#LOSTINE        N/A         32  29  89  CALM    30.30R
#MT HOWARD 8000 N/A         27   6  40  W5      30.29S
#PROMISE 1S     N/A         32  27  82  CALM    30.58F
#WALLOWA SCHOOL N/A         32  29  89  CALM    30.35F



$$



USA.gov is the U.S. government's official web portal to all federal, state and local government web resources and services.